Regional Weather Roundup
Issued by NWS Cleveland, OH

Home | Current Version | Previous Version | Graphics & Text | Print | Product List | Glossary On
Versions: 1 2 3 4 5 6 7 8 9 10 11 12 13 14 15 16 17 18 19 20 21 22 23 24 25 26 27 28 29 30 31 32 33 34 35 36 37 38 39 40 41 42 43 44 45 46 47 48 49 50
000
ASUS41 KCLE 200112
RWRCLE
OHIO REGIONAL WEATHER ROUNDUP
NATIONAL WEATHER SERVICE WILMINGTON, OH
800 PM EST SUN FEB 19 2017

NOTE: "FAIR" INDICATES FEW OR NO CLOUDS BELOW 12,000 FEET WITH NO
SIGNIFICANT WEATHER AND/OR OBSTRUCTIONS TO VISIBILITY.

OHZ001>008-015>018-024>027-034-035-043-044-200200-
   NORTHWEST OHIO

CITY           SKY/WX    TMP DP  RH WIND       PRES   REMARKS
DEFIANCE       FAIR      47  32  56 CALM      30.10R
FINDLAY        FAIR      52  33  48 W3        30.09R
TOLEDO EXPRESS FAIR      47  30  51 CALM      30.09R
TOLEDO EXEC    FAIR      50  33  52 SW3       30.10R
LIMA           FAIR      51  35  54 W3        30.11R
$$

OHZ009>014-019>023-028>033-038-089-200200-
   NORTHEAST OHIO

CITY           SKY/WX    TMP DP  RH WIND       PRES   REMARKS
CLE-HOPKINS    MOCLDY    54  34  46 SW3       30.11R
CLE-LAKEFRONT  FAIR      52  36  54 CALM      30.08R
CUY CO. ARPT   PTCLDY    45  37  76 SE5       30.10R
LORAIN-ELYRIA  FAIR      49  34  56 W5        30.10R
ASHTABULA      FAIR      41  34  76 CALM      30.11R
AKRON-CANTON   FAIR      49  33  54 NW3       30.10R
WOOSTER        FAIR      44  34  67 W3        30.10R
MANSFIELD      FAIR      54  33  45 W6        30.10R
YOUNGSTOWN     FAIR      50  30  46 NW5       30.10R
$$

OHZ042-051>053-060>062-070>072-077>081-200200-
  SOUTHWEST OHIO

CITY           SKY/WX    TMP DP  RH WIND       PRES   REMARKS
CINC-COVINGTON FAIR      48  45  89 S6        30.13S
CINC-LUNKEN    FAIR      51  47  86 CALM      30.15R
HAMILTON       FAIR      43  40  89 CALM      30.15R
DAYTON         FAIR      49  43  80 S6        30.14R
WRIGHT-PAT AFB FAIR      47  46  95 CALM      30.13R
DAYTON GENERAL FAIR      50  44  80 S3        30.13R
WILMINGTON     FAIR      46  44  93 S7        30.14R FOG
$$

OHZ036-037-039>041-045>050-054>059-063>069-073>076-082>088-200200-
  CENTRAL AND SOUTHEAST OHIO

CITY           SKY/WX    TMP DP  RH WIND       PRES   REMARKS
COLUMBUS       FAIR      49  43  80 S3        30.13R
OSU AIRPORT    FAIR      48  45  89 S6        30.12R
BOLTON FIELD   FAIR      45  42  91 SW7       30.13R
RICKENBACK AFB FAIR      46  43  91 S5        30.13R
NEWARK         FAIR      47  43  86 S5        30.12R
MARION         FAIR      46  35  65 W3        30.11R
LANCASTER      FAIR      40  38  93 CALM      30.13S FOG
ZANESVILLE     FAIR      48  42  80 S6        30.12S
NEW PHILLY     FAIR      52  44  74 SW3       30.12R
$$




USA.gov is the U.S. government's official web portal to all federal, state and local government web resources and services.